Location: Barcelona
(41.3830°N, 2.1830°E)
Time: 12:17:05
(UTC+01:00)

ISS - Pass Details

Date: 20 March 2019
Orbit: 408 x 411 km, 51.6° (Epoch: 24 March)

Event Time Altitude Azimuth Distance (km) Brightness Sun altitude
Rises 21:12:50 0° 234° (SW) 2,324 0.4 -24.5°
Reaches altitude 10° 21:14:55 10° 235° (SW) 1,466 -0.7 -24.9°
Enters shadow 21:15:39 16° 235° (SW) 1,170 -1.2 -25.0°
